Ely, NV

9:28 AM PST on February 27, 2017 (GMT -0800)
Ely

Weather History for KELY - August, 2013

Change the Weather History Date:

Wednesday, August 28, 2013

  Actual Average Record
Temperature  
Mean Temperature 68 °F 64 °F  
Max Temperature 83 °F 83 °F 92 °F (2001)
Min Temperature 52 °F 45 °F 31 °F (1960)
Degree Days  
Heating Degree Days 0 3  
Month to date heating degree days 3 32  
Since 1 June heating degree days 103 230  
Since 1 July heating degree days 8 55  
Cooling Degree Days 3 1  
Month to date cooling degree days 86 74  
Year to date cooling degree days 354 209  
Since 1 June cooling degree days 354 208  
Growing Degree Days 17 (Base 50)    
Moisture  
Dew Point 51 °F    
Average Humidity 62    
Maximum Humidity 96    
Minimum Humidity 28    
Precipitation  
Precipitation 0.01 in 0.03 in 0.34 in (1982)
Month to date precipitation 0.41 0.82  
Year to date precipitation 3.77 6.56  
Snow  
Snow 0.00 in 0.00 in 0.00 in (1893)
Month to date snowfall 0.0 0.0  
Since 1 June snowfall 0.0 0.1  
Since 1 July snowfall 0.0 0.0  
Snow Depth 0.00 in    
Sea Level Pressure  
Sea Level Pressure 29.96 in    
Wind  
Wind Speed 12 mph (South)    
Max Wind Speed 33 mph    
Max Gust Speed 38 mph    
Visibility 10 miles    
Events Rain , Thunderstorm    
T = Trace of Precipitation, MM = Missing Value Source: NWS Daily Summary

Daily Weather History Graph

Daily Weather History Graph

Search for Another Location

Airport or City:

Trip Planner

Search our weather history database for the weather conditions in past years. The results will help you decide how hot, cold, wet, or windy it might be!

Date:

Astronomy

Aug. 28, 2013 Rise Set
Actual Time 6:04 AM PDT 7:15 PM PDT
Civil Twilight 5:36 AM PDT 7:43 PM PDT
Nautical Twilight 5:03 AM PDT 8:16 PM PDT
Astronomical Twilight 4:29 AM PDT 8:50 PM PDT
Moon No Moon Rise 1:56 PM PDT (8/28)
Length of Visible Light 14h 06m
Length of Day
13h 11m
Last Quarter, 46% of the Moon is Illuminated
Aug 28
Last Quarter
Sep 5
New
Sep 12
First Quarter
Sep 19
Full
Sep 26
Last Quarter

Hourly Weather History & Observations

Time (PDT) Temp. Dew Point Humidity Pressure Visibility Wind Dir Wind Speed Gust Speed Precip Events Conditions
12:53 AM 61.0 °F 54.0 °F 78% 29.87 in 10.0 mi South 13.8 mph 21.9 mph N/A   Clear
1:53 AM 60.1 °F 53.1 °F 78% 29.87 in 10.0 mi South 10.4 mph - N/A   Clear
2:53 AM 61.0 °F 53.1 °F 75% 29.88 in 10.0 mi South 9.2 mph - N/A   Clear
3:53 AM 55.9 °F 52.0 °F 87% 29.91 in 10.0 mi SSE 6.9 mph - N/A   Clear
4:53 AM 53.1 °F 50.0 °F 89% 29.91 in 10.0 mi South 11.5 mph - N/A   Clear
5:53 AM 52.0 °F 50.0 °F 93% 29.94 in 10.0 mi South 10.4 mph - N/A   Clear
6:53 AM 57.0 °F 52.0 °F 83% 29.96 in 10.0 mi SSE 8.1 mph - N/A   Clear
10:53 AM 79.0 °F 51.1 °F 38% 29.92 in 10.0 mi SSE 18.4 mph 25.3 mph N/A   Mostly Cloudy
11:53 AM 82.0 °F 48.0 °F 30% 29.90 in 10.0 mi SSE 20.7 mph 28.8 mph N/A   Partly Cloudy
12:53 PM 82.0 °F 46.9 °F 29% 29.88 in 10.0 mi SSE 17.3 mph 27.6 mph N/A   Partly Cloudy
1:53 PM 82.0 °F 46.0 °F 28% 29.87 in 10.0 mi South 15.0 mph 20.7 mph N/A   Scattered Clouds
2:53 PM 78.1 °F 43.0 °F 29% 29.88 in 10.0 mi WSW 25.3 mph 38.0 mph N/A   Mostly Cloudy
3:00 PM 78.8 °F 44.6 °F 30% 30.19 in 10.0 mi WSW 19.6 mph 33.4 mph N/A   Mostly Cloudy
3:53 PM 80.1 °F 44.1 °F 28% 29.88 in 10.0 mi SW 6.9 mph - N/A   Clear
4:08 PM 78.8 °F 44.6 °F 30% 30.17 in 10.0 mi SSW 5.8 mph - N/A Thunderstorm Mostly Cloudy
4:44 PM 68.0 °F 53.6 °F 60% 30.20 in 10.0 mi Variable 5.8 mph - 0.01 in Rain , Thunderstorm Light Thunderstorms and Rain
4:53 PM 69.1 °F 54.0 °F 58% 29.96 in 10.0 mi East 9.2 mph - 0.01 in Thunderstorm Scattered Clouds
5:12 PM 71.6 °F 57.2 °F 60% 30.20 in 10.0 mi ESE 5.8 mph - N/A   Clear
5:53 PM 71.1 °F 54.0 °F 55% 29.96 in 10.0 mi SSE 17.3 mph 24.2 mph N/A   Partly Cloudy
6:53 PM 68.0 °F 51.1 °F 55% 29.94 in 10.0 mi SSW 16.1 mph - N/A   Clear
7:53 PM 64.0 °F 52.0 °F 65% 29.94 in 10.0 mi SSE 10.4 mph - N/A   Clear
8:53 PM 66.9 °F 52.0 °F 59% 29.94 in 10.0 mi South 13.8 mph - N/A   Mostly Cloudy
10:53 PM 62.1 °F 53.1 °F 72% 29.96 in 10.0 mi SSE 6.9 mph - N/A   Clear
11:53 PM 61.0 °F 53.1 °F 75% 29.95 in 10.0 mi South 13.8 mph - N/A   Clear